• în România
  • Lista ţărilor
  • Pe 7 zile
  • Temperatura apei
  • Hartă satelitară
  • Meteo pe hartă
  • Widget-uri
  • user-avatar
    Intrare

    Meteo pe oră la Malanje

    Astăzi, 23 Mai, Marţi

    Timp Temperatura Precipitaţii Vânt Presiune Umiditate
    00:00 +19°C° 0 mm 1 m/s 664 mmHg 67%
    01:00 +19°C° 0 mm 1 m/s 664 mmHg 64%
    02:00 +18°C° 0 mm 2 m/s 664 mmHg 63%
    03:00 +18°C° 0 mm 2 m/s 664 mmHg 63%
    04:00 +17°C° 0 mm 2 m/s 664 mmHg 63%
    05:00 +18°C° 0 mm 2 m/s 665 mmHg 64%
    06:00 +18°C° 0 mm 2 m/s 666 mmHg 65%
    07:00 +18°C° 0 mm 2 m/s 666 mmHg 67%
    08:00 +21°C° 0 mm 3 m/s 667 mmHg 60%
    09:00 +25°C° 0 mm 3 m/s 667 mmHg 54%
    10:00 +28°C° 0 mm 4 m/s 668 mmHg 47%
    11:00 +29°C° 0 mm 4 m/s 668 mmHg 44%
    12:00 +30°C° 0 mm 4 m/s 667 mmHg 41%
    13:00 +31°C° 0 mm 3 m/s 667 mmHg 37%
    14:00 +31°C° 0 mm 3 m/s 667 mmHg 38%
    15:00 +30°C° 0 mm 2 m/s 666 mmHg 39%
    16:00 +30°C° 0 mm 2 m/s 666 mmHg 39%
    17:00 +27°C° 0 mm 1 m/s 665 mmHg 48%
    18:00 +24°C° 0 mm 1 m/s 665 mmHg 58%
    19:00 +21°C° 0 mm 1 m/s 664 mmHg 67%
    20:00 +21°C° 0 mm 1 m/s 665 mmHg 69%
    21:00 +20°C° 0 mm 1 m/s 665 mmHg 71%
    22:00 +20°C° 0 mm 1 m/s 665 mmHg 72%
    23:00 +20°C° 0 mm 1 m/s 665 mmHg 71%

    Mâine, 24 Mai, Miercuri

    Timp Temperatura Precipitaţii Vânt Presiune Umiditate
    00:00 +20°C° 0 mm 1 m/s 665 mmHg 70%
    01:00 +20°C° 0 mm 1 m/s 665 mmHg 69%
    02:00 +19°C° 0 mm 1 m/s 665 mmHg 68%
    03:00 +18°C° 0 mm 2 m/s 665 mmHg 68%
    04:00 +18°C° 0 mm 2 m/s 665 mmHg 67%
    05:00 +19°C° 0 mm 2 m/s 665 mmHg 67%
    06:00 +19°C° 0 mm 2 m/s 666 mmHg 67%
    07:00 +19°C° 0 mm 2 m/s 666 mmHg 67%
    08:00 +23°C° 0 mm 2 m/s 667 mmHg 59%
    09:00 +26°C° 0 mm 3 m/s 667 mmHg 52%
    10:00 +29°C° 0 mm 4 m/s 668 mmHg 44%
    11:00 +30°C° 0 mm 4 m/s 668 mmHg 41%
    12:00 +32°C° 0 mm 4 m/s 667 mmHg 38%
    13:00 +33°C° 0 mm 4 m/s 667 mmHg 36%
    14:00 +33°C° 0 mm 3 m/s 666 mmHg 36%
    15:00 +31°C° 0 mm 3 m/s 666 mmHg 37%
    16:00 +31°C° 0 mm 2 m/s 665 mmHg 37%
    17:00 +28°C° 0 mm 2 m/s 665 mmHg 44%
    18:00 +25°C° 0 mm 2 m/s 665 mmHg 50%
    19:00 +23°C° 0 mm 1 m/s 664 mmHg 57%
    20:00 +22°C° 0 mm 1 m/s 665 mmHg 58%
    21:00 +22°C° 0 mm 1 m/s 665 mmHg 58%
    22:00 +21°C° 0 mm 1 m/s 665 mmHg 59%
    23:00 +21°C° 0 mm 1 m/s 665 mmHg 61%

    Poimâine, 25 Mai, Joi

    Timp Temperatura Precipitaţii Vânt Presiune Umiditate
    00:00 +20°C° 0 mm 1 m/s 665 mmHg 63%
    01:00 +19°C° 0 mm 1 m/s 664 mmHg 64%
    02:00 +19°C° 0 mm 1 m/s 664 mmHg 68%
    03:00 +19°C° 0 mm 1 m/s 664 mmHg 71%
    04:00 +18°C° 0 mm 1 m/s 664 mmHg 75%
    05:00 +19°C° 0 mm 1 m/s 664 mmHg 72%
    06:00 +20°C° 0 mm 1 m/s 665 mmHg 69%
    07:00 +21°C° 0 mm 1 m/s 666 mmHg 66%
    08:00 +24°C° 0 mm 1 m/s 667 mmHg 58%
    09:00 +27°C° 0 mm 2 m/s 667 mmHg 51%
    10:00 +29°C° 0 mm 2 m/s 668 mmHg 43%
    11:00 +30°C° 0 mm 3 m/s 668 mmHg 40%
    12:00 +31°C° 0 mm 3 m/s 667 mmHg 37%
    13:00 +33°C° 0 mm 3 m/s 667 mmHg 34%
    14:00 +33°C° 0 mm 3 m/s 666 mmHg 35%
    15:00 +32°C° 0 mm 2 m/s 665 mmHg 36%
    16:00 +31°C° 0 mm 2 m/s 665 mmHg 37%
    17:00 +28°C° 0 mm 1 m/s 665 mmHg 45%
    18:00 +25°C° 0 mm 1 m/s 664 mmHg 53%
    19:00 +22°C° 0 mm 1 m/s 664 mmHg 61%
    20:00 +22°C° 0 mm 1 m/s 665 mmHg 61%
    21:00 +22°C° 0 mm 1 m/s 665 mmHg 60%
    22:00 +21°C° 0 mm 2 m/s 665 mmHg 59%
    23:00 +20°C° 0 mm 2 m/s 665 mmHg 61%

    26 Mai, Vineri

    Timp Temperatura Precipitaţii Vânt Presiune Umiditate
    00:00 +20°C° 0 mm 2 m/s 665 mmHg 63%
    01:00 +19°C° 0 mm 2 m/s 665 mmHg 65%
    02:00 +18°C° 0 mm 2 m/s 664 mmHg 68%
    03:00 +18°C° 0 mm 1 m/s 664 mmHg 70%
    04:00 +16°C° 0 mm 1 m/s 663 mmHg 72%
    05:00 +19°C° 0 mm 1 m/s 664 mmHg 70%
    06:00 +20°C° 0 mm 1 m/s 665 mmHg 69%
    07:00 +21°C° 0 mm 1 m/s 666 mmHg 67%
    08:00 +22°C° 0 mm 0 m/s 667 mmHg 59%
    09:00 +25°C° 0 mm 0 m/s 668 mmHg 50%
    10:00 +28°C° 0 mm 0 m/s 669 mmHg 42%
    11:00 +31°C° 0 mm 1 m/s 668 mmHg 40%
    12:00 +31°C° 0 mm 1 m/s 667 mmHg 39%
    13:00 +32°C° 0 mm 2 m/s 667 mmHg 37%
    14:00 +31°C° 0 mm 1 m/s 666 mmHg 40%
    15:00 +31°C° 0 mm 1 m/s 666 mmHg 42%
    16:00 +30°C° 0 mm 1 m/s 665 mmHg 45%
    17:00 +28°C° 0 mm 1 m/s 665 mmHg 50%
    18:00 +26°C° 0 mm 1 m/s 665 mmHg 56%
    19:00 +24°C° 0 mm 1 m/s 665 mmHg 61%
    20:00 +23°C° 0,1 mm 1 m/s 665 mmHg 65%
    21:00 +22°C° 0,1 mm 1 m/s 665 mmHg 68%
    22:00 +21°C° 0,1 mm 1 m/s 666 mmHg 71%
    23:00 +21°C° 0 mm 1 m/s 665 mmHg 73%

    27 Mai, Sâmbătă

    Timp Temperatura Precipitaţii Vânt Presiune Umiditate
    00:00 +19°C° 0 mm 2 m/s 665 mmHg 74%
    01:00 +18°C° 0 mm 2 m/s 664 mmHg 76%
    02:00 +18°C° 0 mm 2 m/s 664 mmHg 77%
    03:00 +18°C° 0 mm 1 m/s 664 mmHg 77%
    04:00 +18°C° 0 mm 1 m/s 664 mmHg 78%
    05:00 +19°C° 0 mm 1 m/s 665 mmHg 76%
    06:00 +19°C° 0 mm 1 m/s 666 mmHg 74%
    07:00 +20°C° 0 mm 1 m/s 666 mmHg 72%
    08:00 +23°C° 0 mm 1 m/s 667 mmHg 63%
    09:00 +26°C° 0 mm 1 m/s 668 mmHg 55%
    10:00 +29°C° 0 mm 1 m/s 669 mmHg 46%
    11:00 +30°C° 0 mm 1 m/s 668 mmHg 43%
    12:00 +31°C° 0 mm 2 m/s 668 mmHg 39%
    13:00 +32°C° 0 mm 2 m/s 667 mmHg 36%
    14:00 +32°C° 0,1 mm 2 m/s 667 mmHg 37%
    15:00 +31°C° 0,1 mm 1 m/s 666 mmHg 38%
    16:00 +31°C° 0,1 mm 1 m/s 666 mmHg 38%
    17:00 +28°C° 0,2 mm 1 m/s 666 mmHg 47%
    18:00 +25°C° 0,2 mm 1 m/s 665 mmHg 56%
    19:00 +22°C° 0,2 mm 1 m/s 665 mmHg 65%
    20:00 +22°C° 0,2 mm 1 m/s 666 mmHg 69%
    21:00 +22°C° 0,2 mm 1 m/s 666 mmHg 72%
    22:00 +21°C° 0,2 mm 1 m/s 666 mmHg 75%
    23:00 +21°C° 0,1 mm 1 m/s 666 mmHg 77%

    28 Mai, Duminică

    Timp Temperatura Precipitaţii Vânt Presiune Umiditate
    00:00 +20°C° 0,1 mm 1 m/s 666 mmHg 80%
    01:00 +20°C° 0,1 mm 1 m/s 665 mmHg 82%
    02:00 +19°C° 0 mm 1 m/s 665 mmHg 84%
    03:00 +19°C° 0 mm 1 m/s 665 mmHg 86%
    04:00 +18°C° 0 mm 1 m/s 665 mmHg 87%
    05:00 +19°C° 0 mm 1 m/s 666 mmHg 83%
    06:00 +20°C° 0 mm 1 m/s 666 mmHg 79%
    07:00 +21°C° 0 mm 1 m/s 667 mmHg 75%
    08:00 +24°C° 0 mm 2 m/s 668 mmHg 65%
    09:00 +26°C° 0 mm 2 m/s 668 mmHg 54%
    10:00 +29°C° 0 mm 3 m/s 669 mmHg 44%
    11:00 +30°C° 0 mm 3 m/s 668 mmHg 40%
    12:00 +31°C° 0 mm 3 m/s 668 mmHg 35%
    13:00 +34°C° 0 mm 3 m/s 667 mmHg 31%
    14:00 +33°C° 0 mm 3 m/s 667 mmHg 32%
    15:00 +32°C° 0 mm 2 m/s 667 mmHg 33%
    16:00 +32°C° 0 mm 2 m/s 666 mmHg 33%
    17:00 +28°C° 0 mm 2 m/s 666 mmHg 41%
    18:00 +25°C° 0 mm 1 m/s 666 mmHg 48%
    19:00 +22°C° 0 mm 1 m/s 665 mmHg 56%
    20:00 +22°C° 0,1 mm 1 m/s 665 mmHg 58%
    21:00 +21°C° 0,1 mm 1 m/s 666 mmHg 60%
    22:00 +21°C° 0,1 mm 1 m/s 666 mmHg 62%
    23:00 +21°C° 0 mm 1 m/s 666 mmHg 66%
    Arată mai mult